Flag for France

Past Weather in Amiens, Hauts-de-France, France — Yesterday and Last 2 Weeks

Now
54 °F

Passing clouds.


Feels Like: 50 °F
Forecast: 58 / 48 °F
Wind: 10 mph from South

Location: Beauvais Airport
Current Time: Oct 24, 2020 at 5:29:45 am
Latest Report: Oct 24, 2020 at 4:30 am
Visibility: N/A
Pressure29.92 "Hg
Humidity: 88%
Dew Point: 50 °F
Location of AmiensLocation

Past Weather in Amiens — Graph

°F

Amiens Temperature Yesterday

Maximum temperature yesterday: 64 °F (at 2:30 pm)
Minimum temperature yesterday: 50 °F (at 12:30 am)
Average temperature yesterday: 57 °F

High & Low Weather Summary for the Past Weeks

 TemperatureHumidityPressure
High70 °F (Oct 21, 4:00 pm)100% (Oct 9, 4:00 am)30.27 "Hg (Oct 9, 4:00 am)
Low37 °F (Oct 12, 6:30 am)55% (Oct 10, 2:00 pm)29.45 "Hg (Oct 21, 10:00 am)
Average51 °F86%30.02 "Hg
* Reported Oct 9 4:00 am — Oct 24 4:00 am, Amiens. Weather by CustomWeather, © 2020

Note: Actual official high and low records may vary slightly from our data, if they occured in-between our weather recording intervals... More about our weather records

Amiens Weather History for the Previous 24 Hours

Scroll right to see more
 ConditionsComfort  
Time TempWeatherWind HumidityBarometerVisibility
4:00 am
Sat, Oct 24
52 °FPartly cloudy.9 mph94%29.95 "HgN/A
3:30 am52 °FClear.10 mph94%29.95 "Hg10 mi
3:00 am52 °FClear.8 mph94%29.95 "Hg10 mi
2:30 am52 °FClear.9 mph94%29.95 "Hg10 mi
1:30 am54 °FPassing clouds.5 mph94%29.95 "HgN/A
1:00 am54 °FPassing clouds.7 mph94%29.95 "HgN/A
12:30 am54 °FClear.7 mph94%29.95 "Hg10 mi
12:00 am52 °FClear.6 mph94%29.95 "Hg10 mi
11:30 pm
Fri, Oct 23
54 °FClear.7 mph94%29.95 "Hg10 mi
11:00 pm54 °FClear.6 mph88%29.95 "Hg10 mi
10:30 pm55 °FClear.7 mph88%29.92 "Hg10 mi
10:00 pm57 °FPassing clouds.9 mph82%29.92 "HgN/A
9:30 pm59 °FPartly cloudy.8 mph82%29.92 "HgN/A
9:00 pm59 °FPassing clouds.7 mph77%29.89 "HgN/A
8:30 pm59 °FPassing clouds.9 mph82%29.92 "HgN/A
8:00 pm57 °FPassing clouds.5 mph77%29.89 "HgN/A
7:30 pm59 °FMostly cloudy.6 mph77%29.89 "HgN/A
7:00 pm61 °FMostly cloudy.8 mph72%29.89 "HgN/A
6:30 pm61 °FMostly cloudy.9 mph72%29.89 "HgN/A
6:00 pm61 °FPartly sunny.9 mph72%29.89 "HgN/A
5:30 pm63 °FScattered clouds.10 mph64%29.86 "HgN/A
5:00 pm63 °FPartly sunny.10 mph73%29.86 "HgN/A
4:30 pm63 °FScattered clouds.9 mph68%29.86 "HgN/A
4:00 pm64 °FPassing clouds.12 mph64%29.86 "HgN/A
3:30 pm64 °FScattered clouds.10 mph64%29.86 "HgN/A
3:00 pm64 °FScattered clouds.14 mph64%29.86 "HgN/A
2:30 pm64 °FPassing clouds.8 mph64%29.86 "HgN/A
2:00 pm63 °FPassing clouds.12 mph73%29.86 "HgN/A
1:30 pm63 °FPassing clouds.10 mph73%29.86 "HgN/A
1:00 pm61 °FPartly sunny.9 mph83%29.89 "HgN/A
12:30 pm61 °FPartly sunny.8 mph83%29.86 "HgN/A
12:00 pm59 °FPartly sunny.12 mph88%29.89 "HgN/A
11:30 am59 °FMostly cloudy.8 mph94%29.89 "HgN/A
11:00 am57 °FMostly cloudy.6 mph100%29.86 "HgN/A
10:30 am57 °FMostly cloudy.6 mph94%29.86 "HgN/A
10:00 am57 °FMostly cloudy.6 mph100%29.86 "HgN/A
9:30 am55 °FLow clouds.6 mph100%29.86 "HgN/A
9:00 am55 °FMore clouds than sun.8 mph100%29.86 "HgN/A
8:30 am54 °FLow clouds.5 mph100%29.83 "HgN/A
8:00 am54 °FPassing clouds.2 mph100%29.83 "HgN/A
7:30 am55 °FMostly cloudy.1 mph100%29.83 "HgN/A
7:00 am55 °FLow clouds.3 mph100%29.83 "HgN/A
6:30 am55 °FMostly cloudy.3 mph100%29.83 "HgN/A
6:00 am55 °FDrizzle. Mostly cloudy.3 mph100%29.86 "Hg4 mi
5:30 am54 °FMostly cloudy.2 mph100%29.86 "Hg4 mi
5:00 am54 °FFog.2 mph100%29.86 "Hg2 mi
Weather by CustomWeather, © 2020

See weather overview